This demonstration page uses our WeatherBlox Daily Observations layout. Learn more.

Left ArrowRight Arrow

Hourly Observations for February 3, 2020

Temp ( °F °C ) Dew Point ( °F °C ) Humidity (%) Winds ( mph kmh ) Pressure ( in mb ) Visibility ( mi km ) Precip ( " mm )
12:53 am 00:53 Clear 37 2.8 33 0.6 86 86 N N/A 29.83 1010 10 16 N/A
1:53 am 01:53 Clear 33 0.6 30 -1.1 89 89 N N/A 29.85 1011 10 16 N/A
2:53 am 02:53 Clear 34 1.1 32 undefined 92 92 N N/A 29.85 1011 10 16 N/A
3:53 am 03:53 Clear 32 undefined 30 -1.1 92 92 N N/A 29.86 1011 10 16 N/A
4:53 am 04:53 Clear 32 undefined 30 -1.1 92 92 N N/A 29.87 1011 10 16 N/A
5:53 am 05:53 Clear 37 2.8 34 1.1 89 89 E 3 6 29.86 1011 10 16 N/A
6:53 am 06:53 Clear 38 3.3 34 1.1 86 86 ENE 3 6 29.87 1011 10 16 N/A
7:53 am 07:53 Sunny 40 4.4 34 1.1 79 79 E 5 7 29.87 1012 10 16 N/A
8:53 am 08:53 Sunny 42 5.6 37 2.8 82 82 ESE 3 6 29.88 1012 10 16 N/A
9:53 am 09:53 Sunny 48 8.9 36 2.2 63 63 VRB 3 6 29.88 1012 10 16 N/A
10:53 am 10:53 Sunny 54 12.2 37 2.8 53 53 VRB 5 7 29.85 1011 10 16 N/A
11:53 am 11:53 Sunny 57 13.9 38 3.3 49 49 S 6 9 29.84 1011 10 16 N/A
12:53 pm 12:53 Sunny 61 16.1 38 3.3 43 43 SW 6 9 29.82 1010 10 16 N/A
1:53 pm 13:53 Sunny 61 16.1 38 3.3 43 43 S 8 13 29.80 1009 10 16 N/A
2:53 pm 14:53 Sunny 63 17.2 38 3.3 40 40 S 9 15 29.76 1008 10 16 N/A
3:53 pm 15:53 Sunny 64 17.8 38 3.3 38 38 SSW 9 15 29.75 1008 10 16 N/A
4:53 pm 16:53 Sunny 63 17.2 37 2.8 38 38 S 13 20 29.75 1008 10 16 N/A
5:53 pm 17:53 Sunny 62 16.7 37 2.8 40 40 VRB 6 9 29.75 1007 10 16 N/A
6:53 pm 18:53 Mostly Cloudy 64 17.8 38 3.3 38 38 VRB 7 11 29.75 1008 10 16 N/A
7:53 pm 19:53 Cloudy 64 17.8 37 2.8 37 37 S 7 11 29.75 1008 10 16 N/A
8:53 pm 20:53 Cloudy 65 18.3 37 2.8 36 36 SSW 9 15 29.74 1007 10 16 N/A
9:53 pm 21:53 Cloudy 65 18.3 37 2.8 36 36 VRB 6 9 29.76 1008 10 16 N/A
10:53 pm 22:53 Mostly Cloudy 64 17.8 39 3.9 40 40 SW 9 15 29.77 1008 10 16 0.00 0.00
11:53 pm 23:53 Cloudy 62 16.7 38 3.3 41 41 VRB 5 7 29.77 1008 10 16 N/A

Powered by AerisWeather